ABG2301 USPP-URSS

Flight info

Callsign ABG2301
Flight time 3h 30m
Altitude 34000
Route GEKTO1L GEKTO M158 URL/K0867F350 M158 ATR/K0865F340 W324 AKT N37 IPLED/K0874F360 DCT GOTIK DCT MEMZA DCT VENFO DCT BINOL BINOL1L
Aircraft B738/M-SDE2E3FGHIRWXY/LB1

Departure

Time 2026-05-06 13:13
Airport Perm International Airport (USPP)

Arrival

Time 2026-05-06 16:43
Airport Sochi International Airport (URSS)
Time Latitude Longitude Altitude Speed Heading
2026-05-06 12:52 57.91907 56.02104 397 ft 0 kts 318°
2026-05-06 13:03 57.91907 56.02105 397 ft 2 kts 317°
2026-05-06 13:03 57.91894 56.02126 395 ft 2 kts 319°
2026-05-06 13:03 57.91883 56.02148 392 ft 2 kts 286°
2026-05-06 13:04 57.91881 56.02179 393 ft 2 kts 259°
2026-05-06 13:04 57.91886 56.02206 393 ft 1 kts 233°
2026-05-06 13:04 57.91888 56.02210 394 ft 0 kts 229°
2026-05-06 13:06 57.91883 56.02201 395 ft 3 kts 226°
2026-05-06 13:06 57.91844 56.02190 396 ft 9 kts 157°
2026-05-06 13:07 57.91784 56.02294 396 ft 14 kts 135°
2026-05-06 13:07 57.91747 56.02363 395 ft 0 kts 136°
2026-05-06 13:07 57.91746 56.02363 397 ft 0 kts 136°
2026-05-06 13:08 57.91728 56.02398 397 ft 8 kts 136°
2026-05-06 13:08 57.91677 56.02502 399 ft 12 kts 114°
2026-05-06 13:08 57.91707 56.02630 400 ft 11 kts 45°
2026-05-06 13:08 57.91764 56.02739 400 ft 14 kts 45°
2026-05-06 13:09 57.91850 56.02910 399 ft 20 kts 46°
2026-05-06 13:09 57.91948 56.03099 396 ft 20 kts 45°
2026-05-06 13:09 57.92042 56.03282 400 ft 19 kts 46°
2026-05-06 13:09 57.92134 56.03459 402 ft 19 kts 46°
2026-05-06 13:10 57.92222 56.03630 400 ft 18 kts 45°
2026-05-06 13:10 57.92308 56.03795 399 ft 17 kts 45°
2026-05-06 13:10 57.92382 56.03941 400 ft 13 kts 46°
2026-05-06 13:10 57.92450 56.03987 401 ft 5 kts 20°
2026-05-06 13:11 57.92446 56.04041 401 ft 5 kts 157°
2026-05-06 13:11 57.92417 56.04007 401 ft 5 kts 227°
2026-05-06 13:11 57.92411 56.03997 401 ft 0 kts 224°
2026-05-06 13:12 57.92408 56.03990 401 ft 3 kts 224°
2026-05-06 13:12 57.92335 56.03850 401 ft 45 kts 226°
2026-05-06 13:12 57.91943 56.03087 395 ft 116 kts 226°
2026-05-06 13:12 57.91241 56.01703 408 ft 174 kts 226°
2026-05-06 13:13 57.90373 56.00006 1148 ft 174 kts 227°
2026-05-06 13:13 57.89568 55.98370 2181 ft 171 kts 228°
2026-05-06 13:13 57.88679 55.96699 2734 ft 187 kts 227°
2026-05-06 13:13 57.87729 55.94921 3135 ft 204 kts 228°
2026-05-06 13:14 57.86725 55.92992 3664 ft 209 kts 227°
2026-05-06 13:14 57.85668 55.90955 4109 ft 223 kts 225°
2026-05-06 13:14 57.84275 55.89393 4373 ft 252 kts 195°
2026-05-06 13:14 57.82468 55.89537 4897 ft 270 kts 165°
2026-05-06 13:15 57.80741 55.91001 5676 ft 274 kts 155°
2026-05-06 13:15 57.79092 55.92770 6407 ft 279 kts 153°
2026-05-06 13:15 57.77404 55.94640 7041 ft 284 kts 153°
2026-05-06 13:15 57.75685 55.96528 7716 ft 287 kts 154°
2026-05-06 13:16 57.73938 55.98413 8397 ft 292 kts 155°
2026-05-06 13:16 57.72160 56.00308 9092 ft 295 kts 155°
2026-05-06 13:16 57.70361 56.02204 9782 ft 298 kts 155°
2026-05-06 13:16 57.68523 56.04127 10189 ft 312 kts 155°
2026-05-06 13:17 57.66579 56.06148 10360 ft 333 kts 155°
2026-05-06 13:17 57.64385 56.07816 10502 ft 346 kts 173°
2026-05-06 13:17 57.61995 56.07933 10874 ft 350 kts 187°
2026-05-06 13:17 57.59540 56.07615 11462 ft 355 kts 188°
2026-05-06 13:18 57.57068 56.07260 12092 ft 357 kts 187°
2026-05-06 13:18 57.54575 56.06905 12710 ft 361 kts 187°
2026-05-06 13:18 57.52056 56.06560 13333 ft 364 kts 187°
2026-05-06 13:18 57.49505 56.06224 13914 ft 368 kts 187°
2026-05-06 13:19 57.46933 56.05894 14459 ft 372 kts 187°
2026-05-06 13:19 57.44373 56.05572 15001 ft 375 kts 187°
2026-05-06 13:19 57.41753 56.05245 15539 ft 379 kts 186°
2026-05-06 13:19 57.39107 56.04917 16065 ft 383 kts 186°
2026-05-06 13:20 57.36431 56.04586 16600 ft 386 kts 186°
2026-05-06 13:20 57.33731 56.04252 17132 ft 390 kts 186°
2026-05-06 13:20 57.31004 56.03916 17663 ft 393 kts 186°
2026-05-06 13:20 57.28262 56.03578 18150 ft 397 kts 186°
2026-05-06 13:21 57.25489 56.03236 18585 ft 400 kts 186°
2026-05-06 13:21 57.22740 56.02878 19049 ft 402 kts 188°
2026-05-06 13:21 57.19961 56.02161 19511 ft 403 kts 193°
2026-05-06 13:21 57.17201 56.01176 19951 ft 406 kts 194°
2026-05-06 13:22 57.14426 56.00112 20387 ft 409 kts 194°
2026-05-06 13:22 57.11629 55.99051 20835 ft 411 kts 194°
2026-05-06 13:22 57.08803 55.98014 21251 ft 414 kts 194°
2026-05-06 13:22 57.05993 55.97015 21657 ft 417 kts 193°
2026-05-06 13:23 57.03128 55.96018 22065 ft 420 kts 193°
2026-05-06 13:23 57.00239 55.95024 22475 ft 423 kts 193°
2026-05-06 13:23 56.97333 55.94028 22876 ft 426 kts 193°
2026-05-06 13:23 56.94405 55.93026 23266 ft 429 kts 193°
2026-05-06 13:24 56.91454 55.92015 23609 ft 432 kts 193°
2026-05-06 13:24 56.88528 55.91015 23953 ft 433 kts 193°
2026-05-06 13:24 56.85578 55.89877 24288 ft 434 kts 195°
2026-05-06 13:24 56.82644 55.88558 24622 ft 436 kts 197°
2026-05-06 13:25 56.79702 55.87163 24951 ft 437 kts 197°
2026-05-06 13:25 56.76748 55.85755 25289 ft 439 kts 197°
2026-05-06 13:25 56.73781 55.84358 25616 ft 440 kts 197°
2026-05-06 13:25 56.70839 55.82992 25923 ft 442 kts 196°
2026-05-06 13:26 56.67845 55.81618 26231 ft 444 kts 196°
2026-05-06 13:26 56.64843 55.80251 26528 ft 445 kts 196°
2026-05-06 13:26 56.61822 55.78879 26815 ft 447 kts 196°
2026-05-06 13:26 56.58791 55.77505 27096 ft 449 kts 196°
2026-05-06 13:27 56.56775 55.76592 27290 ft 450 kts 196°
2026-05-06 13:27 56.52739 55.74766 27668 ft 452 kts 196°
2026-05-06 13:27 56.50671 55.73831 27859 ft 453 kts 195°
2026-05-06 13:27 56.47646 55.72468 28124 ft 454 kts 195°
2026-05-06 13:28 56.44567 55.71087 28383 ft 456 kts 195°
2026-05-06 13:28 56.41479 55.69704 28665 ft 457 kts 195°
2026-05-06 13:28 56.38392 55.68324 29051 ft 455 kts 195°
2026-05-06 13:28 56.35323 55.66955 29496 ft 453 kts 195°
2026-05-06 13:29 56.32270 55.65594 29914 ft 450 kts 195°
2026-05-06 13:29 56.29229 55.64239 30201 ft 450 kts 195°
2026-05-06 13:29 56.26213 55.62897 30472 ft 449 kts 195°
2026-05-06 13:29 56.23180 55.61550 30760 ft 449 kts 195°
2026-05-06 13:30 56.20146 55.60206 31054 ft 447 kts 195°
2026-05-06 13:30 56.17125 55.58869 31329 ft 447 kts 195°
2026-05-06 13:30 56.14104 55.57534 31600 ft 446 kts 195°
2026-05-06 13:30 56.11127 55.56220 31869 ft 445 kts 195°
2026-05-06 13:31 56.08108 55.54889 32125 ft 445 kts 195°
2026-05-06 13:31 56.05095 55.53562 32376 ft 445 kts 195°
2026-05-06 13:31 56.02088 55.52239 32625 ft 444 kts 195°
2026-05-06 13:31 55.99088 55.50923 32889 ft 443 kts 195°
2026-05-06 13:32 55.96088 55.49609 33111 ft 443 kts 195°
2026-05-06 13:32 55.93098 55.48301 33343 ft 443 kts 195°
2026-05-06 13:32 55.90095 55.46990 33582 ft 443 kts 195°
2026-05-06 13:32 55.87135 55.45700 33807 ft 442 kts 195°
2026-05-06 13:33 55.84139 55.44394 33829 ft 445 kts 195°
2026-05-06 13:33 55.78124 55.41780 33844 ft 443 kts 195°
2026-05-06 13:34 55.72138 55.39188 33842 ft 440 kts 195°
2026-05-06 13:34 55.66232 55.36637 33844 ft 438 kts 195°
2026-05-06 13:35 55.60295 55.34080 33850 ft 437 kts 195°
2026-05-06 13:35 55.54380 55.31541 33850 ft 437 kts 195°
2026-05-06 13:36 55.48491 55.29020 33860 ft 439 kts 195°
2026-05-06 13:36 55.42533 55.26477 33856 ft 441 kts 195°
2026-05-06 13:37 55.36543 55.23950 33862 ft 443 kts 194°
2026-05-06 13:37 55.30546 55.21518 33859 ft 445 kts 194°
2026-05-06 13:38 55.24501 55.19084 33864 ft 446 kts 194°
2026-05-06 13:38 55.18473 55.16652 33863 ft 447 kts 194°
2026-05-06 13:39 55.12401 55.14204 33866 ft 447 kts 194°
2026-05-06 13:39 55.06323 55.11762 33870 ft 446 kts 194°
2026-05-06 13:40 55.00298 55.09347 33867 ft 446 kts 194°
2026-05-06 13:40 54.94266 55.06772 33866 ft 444 kts 200°
2026-05-06 13:41 54.88832 55.01968 33882 ft 440 kts 214°
2026-05-06 13:41 54.83724 54.96087 33877 ft 439 kts 214°
2026-05-06 13:42 54.78636 54.90326 33873 ft 439 kts 213°
2026-05-06 13:42 54.73492 54.84597 33877 ft 438 kts 213°
2026-05-06 13:43 54.68386 54.78836 33873 ft 438 kts 214°
2026-05-06 13:43 54.63299 54.72968 33873 ft 439 kts 214°
2026-05-06 13:44 54.58211 54.67151 33883 ft 439 kts 214°
2026-05-06 13:44 54.53139 54.61368 33870 ft 440 kts 214°
2026-05-06 13:45 54.48023 54.55543 33878 ft 440 kts 214°
2026-05-06 13:45 54.40360 54.46849 33874 ft 441 kts 214°
2026-05-06 13:46 54.34966 54.41804 33879 ft 442 kts 202°
2026-05-06 13:46 54.29196 54.38080 33882 ft 443 kts 201°
2026-05-06 13:47 54.23458 54.34357 33874 ft 443 kts 201°
2026-05-06 13:47 54.17691 54.30535 33873 ft 443 kts 202°
2026-05-06 13:48 54.11973 54.26748 33880 ft 443 kts 202°
2026-05-06 13:48 54.06216 54.22945 33872 ft 443 kts 201°
2026-05-06 13:49 54.00462 54.19154 33875 ft 443 kts 201°
2026-05-06 13:49 53.94701 54.15371 33879 ft 443 kts 201°
2026-05-06 13:50 53.88948 54.11604 33874 ft 443 kts 201°
2026-05-06 13:50 53.83229 54.07869 33873 ft 442 kts 201°
2026-05-06 13:51 53.77481 54.04126 33873 ft 442 kts 201°
2026-05-06 13:51 53.71758 54.00411 33874 ft 442 kts 201°
2026-05-06 13:52 53.66000 53.96685 33871 ft 442 kts 201°
2026-05-06 13:52 53.60233 53.92962 33869 ft 443 kts 201°
2026-05-06 13:53 53.54503 53.89274 33872 ft 443 kts 201°
2026-05-06 13:53 53.48730 53.85570 33867 ft 444 kts 201°
2026-05-06 13:54 53.42948 53.81870 33867 ft 444 kts 201°
2026-05-06 13:54 53.37181 53.78190 33864 ft 444 kts 201°
2026-05-06 13:55 53.31545 53.73919 33874 ft 444 kts 206°
2026-05-06 13:55 53.26031 53.69353 33864 ft 445 kts 206°
2026-05-06 13:56 53.20468 53.64776 33862 ft 445 kts 206°
2026-05-06 13:56 53.14875 53.60236 33857 ft 446 kts 206°
2026-05-06 13:57 53.09313 53.55754 33859 ft 446 kts 205°
2026-05-06 13:57 53.03706 53.51251 33860 ft 446 kts 205°
2026-05-06 13:58 52.98128 53.46782 33855 ft 447 kts 205°
2026-05-06 13:58 52.92522 53.42304 33854 ft 447 kts 205°
2026-05-06 13:59 52.86946 53.37862 33854 ft 447 kts 205°
2026-05-06 13:59 52.81333 53.33403 33855 ft 447 kts 205°
2026-05-06 14:00 52.75701 53.28942 33853 ft 447 kts 205°
2026-05-06 14:00 52.70122 53.24533 33852 ft 447 kts 205°
2026-05-06 14:01 52.64463 53.20176 33851 ft 447 kts 202°
2026-05-06 14:01 52.58710 53.16442 33848 ft 447 kts 200°
2026-05-06 14:02 52.52904 53.12794 33842 ft 446 kts 200°
2026-05-06 14:02 52.47110 53.09080 33844 ft 446 kts 200°
2026-05-06 14:03 52.41319 53.05352 33849 ft 446 kts 200°
2026-05-06 14:03 52.35568 53.01669 33845 ft 446 kts 200°
2026-05-06 14:04 52.29801 52.97992 33841 ft 446 kts 200°
2026-05-06 14:04 52.24018 52.94310 33840 ft 446 kts 200°
2026-05-06 14:05 52.18237 52.90640 33838 ft 445 kts 200°
2026-05-06 14:05 52.12453 52.86978 33842 ft 445 kts 200°
2026-05-06 14:06 52.06666 52.83324 33837 ft 445 kts 200°
2026-05-06 14:06 52.00914 52.79702 33839 ft 445 kts 200°
2026-05-06 14:07 51.95123 52.76066 33839 ft 445 kts 200°
2026-05-06 14:07 51.89378 52.72467 33835 ft 445 kts 200°
2026-05-06 14:08 51.83586 52.68851 33835 ft 445 kts 200°
2026-05-06 14:08 51.77846 52.65276 33831 ft 444 kts 200°
2026-05-06 14:09 51.72062 52.61684 33832 ft 444 kts 200°
2026-05-06 14:09 51.66279 52.58101 33834 ft 444 kts 199°
2026-05-06 14:10 51.60533 52.54551 33830 ft 444 kts 199°
2026-05-06 14:10 51.55055 52.49993 33834 ft 446 kts 218°
2026-05-06 14:11 51.50963 52.42510 33837 ft 449 kts 237°
2026-05-06 14:11 51.47667 52.34032 33827 ft 449 kts 236°
2026-05-06 14:12 51.44256 52.25601 33826 ft 450 kts 236°
2026-05-06 14:12 51.40842 52.17251 33826 ft 451 kts 236°
2026-05-06 14:13 51.37394 52.08832 33824 ft 452 kts 235°
2026-05-06 14:13 51.33934 52.00395 33820 ft 453 kts 235°
2026-05-06 14:14 51.30486 51.92015 33823 ft 453 kts 235°
2026-05-06 14:14 51.27001 51.83570 33825 ft 454 kts 235°
2026-05-06 14:15 51.23534 51.75198 33828 ft 455 kts 235°
2026-05-06 14:15 51.20037 51.66775 33830 ft 455 kts 235°
2026-05-06 14:16 51.16221 51.58761 33819 ft 452 kts 217°
2026-05-06 14:16 51.13587 51.56207 33837 ft 447 kts 200°
2026-05-06 14:16 51.10618 51.54811 33830 ft 444 kts 185°
2026-05-06 14:17 51.04475 51.54874 33833 ft 441 kts 175°
2026-05-06 14:17 50.98362 51.55425 33825 ft 442 kts 175°
2026-05-06 14:18 50.93214 51.55860 33818 ft 442 kts 176°
2026-05-06 14:18 50.87094 51.56319 33815 ft 442 kts 176°
2026-05-06 14:19 50.80945 51.56748 33809 ft 441 kts 176°
2026-05-06 14:19 50.74800 51.57168 33812 ft 441 kts 176°
2026-05-06 14:20 50.68713 51.57583 33802 ft 440 kts 176°
2026-05-06 14:20 50.62610 51.57999 33804 ft 439 kts 176°
2026-05-06 14:21 50.56505 51.58415 33799 ft 438 kts 176°
2026-05-06 14:21 50.50420 51.58829 33793 ft 437 kts 176°
2026-05-06 14:22 50.44381 51.59239 33797 ft 436 kts 176°
2026-05-06 14:22 50.38314 51.59649 33794 ft 436 kts 176°
2026-05-06 14:23 50.32285 51.60056 33789 ft 435 kts 176°
2026-05-06 14:23 50.26225 51.60464 33795 ft 435 kts 176°
2026-05-06 14:24 50.20157 51.60871 33789 ft 435 kts 176°
2026-05-06 14:24 50.14091 51.61277 33787 ft 436 kts 176°
2026-05-06 14:25 50.08067 51.61680 33785 ft 436 kts 176°
2026-05-06 14:25 50.01997 51.62084 33788 ft 436 kts 176°
2026-05-06 14:26 49.95915 51.62488 33783 ft 437 kts 176°
2026-05-06 14:26 49.89862 51.62889 33782 ft 438 kts 176°
2026-05-06 14:27 49.83770 51.63292 33781 ft 438 kts 177°
2026-05-06 14:27 49.77675 51.63694 33777 ft 439 kts 177°
2026-05-06 14:28 49.71552 51.64096 33773 ft 439 kts 177°
2026-05-06 14:28 49.65465 51.64496 33776 ft 440 kts 177°
2026-05-06 14:29 49.59321 51.64898 33771 ft 440 kts 177°
2026-05-06 14:29 49.53221 51.65296 33771 ft 440 kts 177°
2026-05-06 14:30 49.47095 51.65695 33775 ft 440 kts 178°
2026-05-06 14:30 49.41007 51.66090 33768 ft 440 kts 178°
2026-05-06 14:31 49.34879 51.66487 33771 ft 440 kts 178°
2026-05-06 14:31 49.28750 51.66884 33771 ft 440 kts 178°
2026-05-06 14:32 49.22620 51.67279 33763 ft 440 kts 178°
2026-05-06 14:32 49.16536 51.67670 33767 ft 439 kts 178°
2026-05-06 14:33 49.10421 51.68062 33766 ft 439 kts 178°
2026-05-06 14:33 49.04359 51.68450 33768 ft 438 kts 178°
2026-05-06 14:34 48.98265 51.68839 33767 ft 438 kts 178°
2026-05-06 14:34 48.92172 51.69227 33768 ft 438 kts 179°
2026-05-06 14:35 48.86078 51.69615 33776 ft 437 kts 179°
2026-05-06 14:35 48.80036 51.69998 33773 ft 437 kts 179°
2026-05-06 14:36 48.73949 51.70382 33772 ft 436 kts 179°
2026-05-06 14:36 48.67876 51.70765 33778 ft 436 kts 179°
2026-05-06 14:37 48.61856 51.71144 33776 ft 435 kts 179°
2026-05-06 14:37 48.55809 51.71524 33779 ft 434 kts 179°
2026-05-06 14:38 48.49783 51.71901 33783 ft 433 kts 179°
2026-05-06 14:38 48.43765 51.72277 33781 ft 432 kts 179°
2026-05-06 14:39 48.37804 51.72649 33785 ft 431 kts 179°
2026-05-06 14:39 48.31818 51.73021 33784 ft 430 kts 179°
2026-05-06 14:40 48.25820 51.73393 33786 ft 429 kts 179°
2026-05-06 14:40 48.19845 51.73762 33786 ft 428 kts 179°
2026-05-06 14:41 48.13928 51.74128 33787 ft 428 kts 179°
2026-05-06 14:41 48.07970 51.74495 33787 ft 427 kts 179°
2026-05-06 14:42 48.02031 51.74859 33788 ft 426 kts 179°
2026-05-06 14:42 47.96143 51.75220 33790 ft 425 kts 178°
2026-05-06 14:43 47.90228 51.75582 33792 ft 425 kts 178°
2026-05-06 14:43 47.84310 51.75944 33789 ft 424 kts 178°
2026-05-06 14:44 47.79865 51.76214 33789 ft 424 kts 178°
2026-05-06 14:45 47.71246 51.76738 33787 ft 424 kts 178°
2026-05-06 14:45 47.65386 51.77093 33784 ft 424 kts 178°
2026-05-06 14:46 47.59475 51.77450 33785 ft 425 kts 178°
2026-05-06 14:46 47.53554 51.77807 33787 ft 425 kts 178°
2026-05-06 14:47 47.47628 51.78164 33787 ft 426 kts 178°
2026-05-06 14:47 47.41729 51.78518 33793 ft 427 kts 178°
2026-05-06 14:48 47.35770 51.78875 33797 ft 428 kts 178°
2026-05-06 14:48 47.29795 51.79233 33802 ft 429 kts 178°
2026-05-06 14:49 47.23806 51.79590 33800 ft 430 kts 178°
2026-05-06 14:49 47.17840 51.79945 33801 ft 431 kts 178°
2026-05-06 14:50 47.11840 51.79715 33800 ft 431 kts 188°
2026-05-06 14:50 47.05905 51.78340 33802 ft 431 kts 189°
2026-05-06 14:51 47.00006 51.76955 33802 ft 431 kts 189°
2026-05-06 14:51 46.94069 51.75606 33805 ft 432 kts 189°
2026-05-06 14:52 46.88117 51.74279 33813 ft 432 kts 188°
2026-05-06 14:52 46.82181 51.72962 33815 ft 431 kts 189°
2026-05-06 14:53 46.76280 51.71656 33819 ft 431 kts 189°
2026-05-06 14:53 46.70349 51.70345 33823 ft 430 kts 189°
2026-05-06 14:54 46.64423 51.69038 33825 ft 430 kts 189°
2026-05-06 14:54 46.58504 51.67735 33828 ft 429 kts 189°
2026-05-06 14:55 46.52719 51.66464 33831 ft 428 kts 189°
2026-05-06 14:55 46.46871 51.65182 33836 ft 427 kts 189°
2026-05-06 14:56 46.40997 51.63896 33840 ft 426 kts 189°
2026-05-06 14:56 46.35138 51.62606 33839 ft 424 kts 189°
2026-05-06 14:57 46.29299 51.61321 33845 ft 423 kts 189°
2026-05-06 14:57 46.23513 51.60051 33843 ft 422 kts 189°
2026-05-06 14:58 46.17705 51.58779 33847 ft 421 kts 189°
2026-05-06 14:58 46.11910 51.57513 33852 ft 420 kts 189°
2026-05-06 14:59 46.06151 51.56258 33856 ft 419 kts 189°
2026-05-06 14:59 46.00375 51.55002 33864 ft 419 kts 189°
2026-05-06 15:00 45.94603 51.53749 33864 ft 418 kts 189°
2026-05-06 15:00 45.88875 51.52508 33872 ft 418 kts 189°
2026-05-06 15:01 45.83103 51.51260 33870 ft 418 kts 189°
2026-05-06 15:01 45.77381 51.50025 33877 ft 418 kts 189°
2026-05-06 15:02 45.71653 51.48792 33879 ft 418 kts 189°
2026-05-06 15:02 45.65899 51.47556 33883 ft 418 kts 189°
2026-05-06 15:03 45.60133 51.46323 33881 ft 418 kts 189°
2026-05-06 15:03 45.54366 51.45091 33884 ft 418 kts 189°
2026-05-06 15:04 45.48638 51.43870 33887 ft 418 kts 189°
2026-05-06 15:04 45.42873 51.42644 33888 ft 418 kts 189°
2026-05-06 15:05 45.38079 51.41626 33892 ft 418 kts 189°
2026-05-06 15:05 45.32359 51.40414 33895 ft 418 kts 189°
2026-05-06 15:06 45.26604 51.39196 33894 ft 417 kts 189°
2026-05-06 15:06 45.20852 51.37982 33899 ft 417 kts 189°
2026-05-06 15:07 45.15143 51.36779 33900 ft 416 kts 189°
2026-05-06 15:07 45.09420 51.35576 33899 ft 415 kts 189°
2026-05-06 15:08 45.03699 51.34375 33900 ft 415 kts 189°
2026-05-06 15:08 44.98021 51.33186 33907 ft 414 kts 189°
2026-05-06 15:09 44.92321 51.31994 33906 ft 414 kts 189°
2026-05-06 15:09 44.86617 51.30804 33908 ft 414 kts 189°
2026-05-06 15:10 44.80906 51.29615 33912 ft 413 kts 189°
2026-05-06 15:10 44.75267 51.28300 33915 ft 413 kts 191°
2026-05-06 15:11 44.69588 51.26841 33915 ft 414 kts 191°
2026-05-06 15:11 44.63918 51.25393 33918 ft 414 kts 191°
2026-05-06 15:12 44.58243 51.23965 33920 ft 414 kts 191°
2026-05-06 15:12 44.52588 51.22553 33925 ft 414 kts 191°
2026-05-06 15:13 44.46902 51.21137 33927 ft 414 kts 191°
2026-05-06 15:13 44.41259 51.19735 33931 ft 414 kts 191°
2026-05-06 15:14 44.35574 51.18325 33934 ft 414 kts 191°
2026-05-06 15:14 44.29893 51.16918 33935 ft 414 kts 191°
2026-05-06 15:15 44.24253 51.15525 33941 ft 414 kts 191°
2026-05-06 15:15 44.18575 51.14124 33948 ft 414 kts 191°
2026-05-06 15:16 44.12889 51.12725 33959 ft 414 kts 192°
2026-05-06 15:16 44.07253 51.11340 33971 ft 413 kts 192°
2026-05-06 15:17 44.01578 51.09948 33985 ft 413 kts 192°
2026-05-06 15:17 43.95943 51.08569 33992 ft 413 kts 192°
2026-05-06 15:18 43.90399 51.06641 33986 ft 409 kts 208°
2026-05-06 15:18 43.88048 51.04422 33996 ft 409 kts 220°
2026-05-06 15:18 43.86080 51.01566 33997 ft 411 kts 231°
2026-05-06 15:18 43.84647 50.98127 34004 ft 415 kts 243°
2026-05-06 15:19 43.83530 50.94486 33995 ft 416 kts 244°
2026-05-06 15:19 43.81382 50.87013 33985 ft 418 kts 245°
2026-05-06 15:20 43.79218 50.79521 33981 ft 419 kts 245°
2026-05-06 15:20 43.77020 50.72078 33973 ft 421 kts 244°
2026-05-06 15:21 43.74772 50.64554 33967 ft 422 kts 244°
2026-05-06 15:21 43.72524 50.57069 33968 ft 424 kts 245°
2026-05-06 15:22 43.70249 50.49517 33967 ft 425 kts 245°
2026-05-06 15:22 43.67967 50.41957 33974 ft 426 kts 245°
2026-05-06 15:23 43.65691 50.34441 33972 ft 426 kts 245°
2026-05-06 15:23 43.63395 50.26881 33970 ft 426 kts 245°
2026-05-06 15:24 43.61098 50.19339 33962 ft 425 kts 245°
2026-05-06 15:24 43.58802 50.11822 33965 ft 424 kts 245°
2026-05-06 15:25 43.56526 50.04394 33973 ft 423 kts 245°
2026-05-06 15:25 43.54233 49.96929 33974 ft 421 kts 245°
2026-05-06 15:26 43.51941 49.89491 33978 ft 420 kts 245°
2026-05-06 15:26 43.49667 49.82133 33971 ft 419 kts 245°
2026-05-06 15:27 43.47378 49.74743 33978 ft 418 kts 245°
2026-05-06 15:27 43.45090 49.67379 33976 ft 417 kts 245°
2026-05-06 15:28 43.42812 49.60063 33979 ft 417 kts 245°
2026-05-06 15:28 43.40661 49.52625 33972 ft 418 kts 253°
2026-05-06 15:29 43.39829 49.44743 33975 ft 423 kts 268°
2026-05-06 15:29 43.40128 49.36638 33974 ft 424 kts 270°
2026-05-06 15:30 43.40505 49.28528 33977 ft 424 kts 270°
2026-05-06 15:30 43.40854 49.20464 33979 ft 424 kts 270°
2026-05-06 15:31 43.41180 49.12352 33974 ft 425 kts 270°
2026-05-06 15:31 43.41494 49.04209 33981 ft 425 kts 270°
2026-05-06 15:32 43.41949 48.92057 33980 ft 426 kts 270°
2026-05-06 15:32 43.42246 48.83915 33981 ft 426 kts 270°
2026-05-06 15:33 43.42539 48.75758 33979 ft 427 kts 270°
2026-05-06 15:33 43.42825 48.67616 33980 ft 427 kts 270°
2026-05-06 15:34 43.43108 48.59429 33978 ft 428 kts 270°
2026-05-06 15:34 43.43384 48.51226 33977 ft 428 kts 270°
2026-05-06 15:35 43.43653 48.43087 33979 ft 428 kts 270°
2026-05-06 15:35 43.43919 48.34857 33980 ft 429 kts 270°
2026-05-06 15:36 43.44177 48.26711 33978 ft 429 kts 270°
2026-05-06 15:36 43.44431 48.18483 33978 ft 429 kts 270°
2026-05-06 15:37 43.44679 48.10256 33981 ft 430 kts 270°
2026-05-06 15:37 43.44922 48.02030 33982 ft 430 kts 270°
2026-05-06 15:38 43.45157 47.93835 33984 ft 430 kts 270°
2026-05-06 15:38 43.45389 47.85577 33981 ft 430 kts 270°
2026-05-06 15:39 43.45613 47.77371 33984 ft 431 kts 270°
2026-05-06 15:39 43.45831 47.69164 33987 ft 431 kts 270°
2026-05-06 15:40 43.46044 47.60915 33992 ft 431 kts 270°
2026-05-06 15:40 43.46252 47.52651 33989 ft 431 kts 269°
2026-05-06 15:41 43.46453 47.44387 33988 ft 431 kts 269°
2026-05-06 15:41 43.46648 47.36173 33991 ft 431 kts 269°
2026-05-06 15:42 43.46838 47.27903 33995 ft 432 kts 269°
2026-05-06 15:42 43.47022 47.19622 33996 ft 432 kts 269°
2026-05-06 15:43 43.47200 47.11383 33999 ft 433 kts 269°
2026-05-06 15:43 43.47373 47.03075 33998 ft 433 kts 269°
2026-05-06 15:44 43.47539 46.94815 34000 ft 434 kts 269°
2026-05-06 15:44 43.47700 46.86489 34005 ft 434 kts 269°
2026-05-06 15:45 43.47855 46.78167 34004 ft 435 kts 269°
2026-05-06 15:45 43.48004 46.69837 34007 ft 435 kts 269°
2026-05-06 15:46 43.48147 46.61543 34007 ft 435 kts 269°
2026-05-06 15:46 43.48285 46.53187 34009 ft 436 kts 269°
2026-05-06 15:47 43.48416 46.44829 34010 ft 436 kts 269°
2026-05-06 15:47 43.48541 46.36500 34014 ft 437 kts 269°
2026-05-06 15:48 43.48661 46.28122 34015 ft 437 kts 269°
2026-05-06 15:48 43.48775 46.19732 34021 ft 438 kts 269°
2026-05-06 15:49 43.48883 46.11392 34023 ft 438 kts 269°
2026-05-06 15:49 43.49027 46.02951 34023 ft 439 kts 272°
2026-05-06 15:50 43.49663 45.94630 34033 ft 440 kts 275°
2026-05-06 15:50 43.50413 45.86245 34025 ft 440 kts 275°
2026-05-06 15:51 43.51134 45.77897 34021 ft 440 kts 275°
2026-05-06 15:51 43.51825 45.69529 34021 ft 440 kts 275°
2026-05-06 15:52 43.52506 45.61105 34025 ft 441 kts 275°
2026-05-06 15:52 43.53066 45.54100 34024 ft 441 kts 275°
2026-05-06 15:53 43.53730 45.45727 34030 ft 441 kts 275°
2026-05-06 15:53 43.54499 45.35937 34034 ft 442 kts 275°
2026-05-06 15:54 43.55049 45.28878 34036 ft 442 kts 274°
2026-05-06 15:54 43.55696 45.20482 34038 ft 442 kts 274°
2026-05-06 15:55 43.56342 45.12030 34048 ft 443 kts 274°
2026-05-06 15:55 43.56979 45.03605 34035 ft 444 kts 274°
2026-05-06 15:56 43.57615 44.95122 34045 ft 444 kts 274°
2026-05-06 15:56 43.58245 44.86625 34043 ft 445 kts 274°
2026-05-06 15:57 43.58866 44.78163 34045 ft 445 kts 274°
2026-05-06 15:57 43.59485 44.69639 34041 ft 445 kts 274°
2026-05-06 15:58 43.60096 44.61137 34045 ft 446 kts 274°
2026-05-06 15:58 43.60698 44.52664 34044 ft 446 kts 274°
2026-05-06 15:59 43.61299 44.44125 34039 ft 446 kts 274°
2026-05-06 15:59 43.61890 44.35641 34035 ft 446 kts 274°
2026-05-06 16:00 43.62478 44.27098 34033 ft 446 kts 274°
2026-05-06 16:00 43.63062 44.18548 34029 ft 447 kts 274°
2026-05-06 16:01 43.63600 44.09999 34027 ft 447 kts 272°
2026-05-06 16:01 43.63862 44.01422 34025 ft 447 kts 270°
2026-05-06 16:02 43.64051 43.92886 34017 ft 447 kts 271°
2026-05-06 16:02 43.64263 43.84285 34025 ft 447 kts 271°
2026-05-06 16:03 43.64490 43.75737 34026 ft 448 kts 271°
2026-05-06 16:03 43.64720 43.67143 34027 ft 448 kts 271°
2026-05-06 16:04 43.64945 43.58535 34025 ft 449 kts 271°
2026-05-06 16:04 43.65162 43.49916 34026 ft 449 kts 271°
2026-05-06 16:05 43.65373 43.41275 34034 ft 449 kts 271°
2026-05-06 16:05 43.65577 43.32698 34041 ft 450 kts 271°
2026-05-06 16:06 43.65775 43.24045 34062 ft 450 kts 271°
2026-05-06 16:06 43.65966 43.15400 34062 ft 450 kts 271°
2026-05-06 16:07 43.66151 43.06786 34078 ft 450 kts 270°
2026-05-06 16:07 43.66330 42.98121 34087 ft 450 kts 270°
2026-05-06 16:08 43.66501 42.89532 34090 ft 450 kts 270°
2026-05-06 16:08 43.66667 42.80878 34093 ft 450 kts 270°
2026-05-06 16:09 43.66826 42.72214 34101 ft 450 kts 270°
2026-05-06 16:09 43.66978 42.63619 34109 ft 450 kts 270°
2026-05-06 16:10 43.67125 42.54944 34112 ft 450 kts 270°
2026-05-06 16:10 43.67263 42.46346 34115 ft 450 kts 270°
2026-05-06 16:11 43.67396 42.37682 34118 ft 451 kts 270°
2026-05-06 16:11 43.67524 42.29009 34117 ft 451 kts 270°
2026-05-06 16:12 43.67644 42.20376 34116 ft 451 kts 270°
2026-05-06 16:12 43.67758 42.11699 34121 ft 451 kts 270°
2026-05-06 16:13 43.67865 42.03010 34117 ft 452 kts 270°
2026-05-06 16:13 43.67965 41.94367 34118 ft 452 kts 270°
2026-05-06 16:14 43.68060 41.85652 34122 ft 453 kts 270°
2026-05-06 16:14 43.68148 41.76927 34118 ft 453 kts 270°
2026-05-06 16:15 43.68229 41.68269 34118 ft 453 kts 270°
2026-05-06 16:15 43.68303 41.59649 34107 ft 442 kts 270°
2026-05-06 16:16 43.68369 41.51232 34117 ft 440 kts 270°
2026-05-06 16:16 43.68400 41.46990 33834 ft 442 kts 269°
2026-05-06 16:16 43.68429 41.42754 33504 ft 436 kts 269°
2026-05-06 16:17 43.68457 41.38580 33109 ft 431 kts 270°
2026-05-06 16:17 43.68482 41.34448 32703 ft 427 kts 270°
2026-05-06 16:17 43.68507 41.30412 32299 ft 424 kts 270°
2026-05-06 16:17 43.68528 41.26342 31914 ft 420 kts 270°
2026-05-06 16:18 43.68549 41.22324 31524 ft 417 kts 270°
2026-05-06 16:18 43.68568 41.18343 31142 ft 413 kts 270°
2026-05-06 16:18 43.68585 41.14378 30762 ft 411 kts 270°
2026-05-06 16:18 43.68601 41.10442 30380 ft 408 kts 270°
2026-05-06 16:19 43.68616 41.06536 29973 ft 405 kts 270°
2026-05-06 16:19 43.68629 41.02652 29553 ft 401 kts 270°
2026-05-06 16:19 43.68642 40.98861 29173 ft 397 kts 270°
2026-05-06 16:19 43.68653 40.95051 28776 ft 393 kts 270°
2026-05-06 16:20 43.68662 40.91297 28394 ft 389 kts 270°
2026-05-06 16:20 43.68671 40.87566 28026 ft 385 kts 270°
2026-05-06 16:20 43.68687 40.83871 27636 ft 382 kts 270°
2026-05-06 16:20 43.68705 40.80212 27271 ft 379 kts 270°
2026-05-06 16:21 43.68723 40.76582 26890 ft 376 kts 270°
2026-05-06 16:21 43.68739 40.73013 26537 ft 374 kts 270°
2026-05-06 16:21 43.68754 40.69431 26161 ft 371 kts 269°
2026-05-06 16:21 43.68767 40.65865 25790 ft 369 kts 269°
2026-05-06 16:22 43.68779 40.62334 25441 ft 366 kts 269°
2026-05-06 16:22 43.68790 40.58860 25102 ft 364 kts 269°
2026-05-06 16:22 43.68799 40.55374 24735 ft 362 kts 269°
2026-05-06 16:22 43.68807 40.51899 24386 ft 359 kts 269°
2026-05-06 16:23 43.68815 40.48450 24042 ft 358 kts 269°
2026-05-06 16:23 43.68821 40.45015 23699 ft 356 kts 269°
2026-05-06 16:23 43.68825 40.41585 23280 ft 355 kts 269°
2026-05-06 16:23 43.68829 40.38240 22903 ft 352 kts 269°
2026-05-06 16:24 43.68832 40.34852 22568 ft 349 kts 269°
2026-05-06 16:24 43.68834 40.31500 22200 ft 347 kts 269°
2026-05-06 16:24 43.68836 40.28171 21860 ft 344 kts 269°
2026-05-06 16:24 43.68836 40.24870 21508 ft 342 kts 269°
2026-05-06 16:25 43.68836 40.21590 21165 ft 340 kts 269°
2026-05-06 16:25 43.68834 40.18318 20823 ft 339 kts 269°
2026-05-06 16:25 43.68779 40.15078 20469 ft 336 kts 261°
2026-05-06 16:25 43.68049 40.12087 20129 ft 332 kts 237°
2026-05-06 16:26 43.66567 40.09685 19821 ft 329 kts 218°
2026-05-06 16:26 43.64588 40.08082 19530 ft 333 kts 204°
2026-05-06 16:26 43.62432 40.06758 19197 ft 341 kts 202°
2026-05-06 16:26 43.60267 40.05447 18857 ft 346 kts 203°
2026-05-06 16:27 43.58071 40.04099 18500 ft 346 kts 203°
2026-05-06 16:27 43.55874 40.02734 18130 ft 345 kts 203°
2026-05-06 16:27 43.53704 40.01376 17745 ft 342 kts 204°
2026-05-06 16:27 43.51526 40.00012 17384 ft 339 kts 204°
2026-05-06 16:28 43.49404 39.98684 17044 ft 336 kts 204°
2026-05-06 16:28 43.47289 39.97363 16740 ft 331 kts 204°
2026-05-06 16:28 43.45205 39.96077 16448 ft 327 kts 201°
2026-05-06 16:28 43.43067 39.94986 16085 ft 325 kts 198°
2026-05-06 16:29 43.40917 39.94023 15723 ft 324 kts 197°
2026-05-06 16:29 43.38774 39.93089 15377 ft 320 kts 197°
2026-05-06 16:29 43.36694 39.92178 14893 ft 316 kts 197°
2026-05-06 16:29 43.34589 39.91243 14406 ft 319 kts 197°
2026-05-06 16:30 43.32481 39.90296 14136 ft 315 kts 197°
2026-05-06 16:30 43.31104 39.89674 13952 ft 311 kts 197°
2026-05-06 16:30 43.28401 39.88448 13178 ft 308 kts 197°
2026-05-06 16:30 43.26355 39.87520 12562 ft 308 kts 198°
2026-05-06 16:31 43.24323 39.86598 12012 ft 306 kts 198°
2026-05-06 16:31 43.22307 39.85684 11495 ft 304 kts 198°
2026-05-06 16:31 43.20309 39.84688 11042 ft 307 kts 208°
2026-05-06 16:31 43.18678 39.82825 10640 ft 307 kts 233°
2026-05-06 16:32 43.17784 39.80227 10256 ft 307 kts 258°
2026-05-06 16:32 43.17766 39.77320 9825 ft 308 kts 285°
2026-05-06 16:32 43.18637 39.74773 9836 ft 286 kts 308°
2026-05-06 16:32 43.20065 39.72992 9618 ft 273 kts 329°
2026-05-06 16:33 43.21799 39.72005 9170 ft 270 kts 346°
2026-05-06 16:33 43.23627 39.71447 8711 ft 268 kts 348°
2026-05-06 16:33 43.25449 39.70937 8287 ft 266 kts 348°
2026-05-06 16:34 43.29025 39.69909 7425 ft 262 kts 348°
2026-05-06 16:34 43.30800 39.69386 7010 ft 260 kts 348°
2026-05-06 16:34 43.32555 39.68866 6642 ft 256 kts 348°
2026-05-06 16:34 43.34267 39.68356 6400 ft 247 kts 348°
2026-05-06 16:35 43.35906 39.67908 6118 ft 240 kts 355°
2026-05-06 16:35 43.37524 39.68256 5757 ft 237 kts 24°
2026-05-06 16:35 43.38827 39.69616 5366 ft 237 kts 51°
2026-05-06 16:35 43.39535 39.71655 4958 ft 239 kts 78°
2026-05-06 16:36 43.39472 39.73924 4541 ft 240 kts 107°
2026-05-06 16:36 43.38628 39.75873 4155 ft 239 kts 136°
2026-05-06 16:36 43.37248 39.77092 3893 ft 236 kts 162°
2026-05-06 16:36 43.35626 39.77212 3642 ft 234 kts 194°
2026-05-06 16:37 43.34222 39.76239 3427 ft 226 kts 221°
2026-05-06 16:37 43.33295 39.74552 3157 ft 220 kts 250°
2026-05-06 16:37 43.33201 39.72524 2881 ft 213 kts 288°
2026-05-06 16:37 43.34077 39.70985 2608 ft 205 kts 333°
2026-05-06 16:38 43.35442 39.70766 2344 ft 201 kts 18°
2026-05-06 16:38 43.36491 39.71907 2211 ft 195 kts 54°
2026-05-06 16:38 43.37208 39.73429 2117 ft 184 kts 56°
2026-05-06 16:38 43.37875 39.74899 2060 ft 176 kts 58°
2026-05-06 16:39 43.38433 39.76336 2037 ft 166 kts 62°
2026-05-06 16:39 43.38922 39.77734 2008 ft 159 kts 63°
2026-05-06 16:39 43.39391 39.79111 2002 ft 160 kts 63°
2026-05-06 16:39 43.39863 39.80506 1935 ft 162 kts 63°
2026-05-06 16:40 43.40332 39.81894 1755 ft 161 kts 64°
2026-05-06 16:40 43.40804 39.83286 1537 ft 160 kts 64°
2026-05-06 16:40 43.41277 39.84682 1291 ft 161 kts 64°
2026-05-06 16:40 43.41592 39.85611 1126 ft 162 kts 64°
2026-05-06 16:41 43.42071 39.87027 890 ft 162 kts 64°
2026-05-06 16:41 43.42679 39.88897 627 ft 161 kts 65°
2026-05-06 16:41 43.42993 39.89843 491 ft 159 kts 64°
2026-05-06 16:41 43.43469 39.91201 325 ft 160 kts 63°
2026-05-06 16:42 43.43942 39.92579 114 ft 159 kts 64°
2026-05-06 16:42 43.44399 39.93890 60 ft 139 kts 64°
2026-05-06 16:42 43.44747 39.94909 69 ft 96 kts 65°
2026-05-06 16:42 43.44965 39.95561 89 ft 53 kts 65°
2026-05-06 16:43 43.45052 39.95805 90 ft 22 kts 48°
2026-05-06 16:43 43.45181 39.95914 91 ft 21 kts 28°
2026-05-06 16:43 43.45225 39.95947 92 ft 0 kts 27°
2026-05-06 16:44 43.45234 39.95950 90 ft 4 kts 14°
2026-05-06 16:44 43.45274 39.95929 93 ft 8 kts 311°
2026-05-06 16:44 43.45300 39.95834 93 ft 13 kts 272°
2026-05-06 16:45 43.45256 39.95709 94 ft 16 kts 239°
2026-05-06 16:45 43.45199 39.95581 91 ft 15 kts 236°
2026-05-06 16:45 43.45133 39.95452 92 ft 20 kts 234°
2026-05-06 16:45 43.45058 39.95258 89 ft 25 kts 245°
2026-05-06 16:46 43.44981 39.95059 81 ft 21 kts 230°
2026-05-06 16:46 43.44912 39.94890 76 ft 20 kts 245°
2026-05-06 16:46 43.44852 39.94716 69 ft 20 kts 245°
2026-05-06 16:46 43.44795 39.94549 71 ft 17 kts 245°
2026-05-06 16:47 43.44761 39.94448 67 ft 10 kts 249°
2026-05-06 16:47 43.44797 39.94383 70 ft 9 kts 334°
2026-05-06 16:47 43.44816 39.94371 69 ft 0 kts 336°